Weather reports worldwide

Advertisment
Eskdalemuir, United Kingdom (3162): temperature & dewpoint: 25.10.2020 04:00:00 - 31.10.2020 04:00:00 (GMT)Eskdalemuir, United Kingdom (3162): temperature -20cm & temperature -100cm: 25.10.2020 04:00:00 - 31.10.2020 04:00:00 (GMT)Eskdalemuir, United Kingdom (3162): wind speed & gusts: 25.10.2020 04:00:00 - 31.10.2020 04:00:00 (GMT)Eskdalemuir, United Kingdom (3162): wind direction: 25.10.2020 04:00:00 - 31.10.2020 04:00:00 (GMT)Eskdalemuir, United Kingdom (3162): reduced air pressure: 25.10.2020 04:00:00 - 31.10.2020 04:00:00 (GMT)Eskdalemuir, United Kingdom (3162): visibility: 25.10.2020 04:00:00 - 31.10.2020 04:00:00 (GMT)Eskdalemuir, United Kingdom (3162): sunshine duration: 25.10.2020 04:00:00 - 31.10.2020 04:00:00 (GMT)Eskdalemuir, United Kingdom (3162): precipitation: 25.10.2020 04:00:00 - 31.10.2020 04:00:00 (GMT)
Date & Time tt [°C] td [°C] tt -20cm [°C] tt -100cm [°C] ff [km/h] ff [kn] fx [km/h] fx [kn] dd ppp [hPa] vv [km] sd [min] rr [mm]
31.10.2020 04:00:00 5,2 5,0 - - 8 4 - - NNW 1006,6 4,5 0 -
31.10.2020 03:00:00 4,6 4,5 - - 8 4 - - NNE 1008,6 8 0 1,6
31.10.2020 02:00:00 3,4 3,3 - - 5 3 - - N 1010,9 30 0 0,0
31.10.2020 01:00:00 1,2 1,1 - - 4 2 - - NW 1013,7 10 0 0,0
31.10.2020 00:00:00 0,4 0,3 - - 5 3 - - N 1014,6 16 - 0,0
30.10.2020 23:00:00 -0,4 -0,6 - - 2 1 - - NW 1015,9 12 0 0,0
30.10.2020 22:00:00 -0,2 -0,4 - - 2 1 - - NW 1016,9 12 0 0,0
30.10.2020 21:00:00 0,4 0,1 - - 2 1 - - N 1016,5 18 0 0,0
30.10.2020 20:00:00 1,1 0,6 - - 5 3 - - ENE 1016,7 14 0 0,0
30.10.2020 19:00:00 2,2 1,5 - - 2 1 - - NE 1016,3 19 0 0,0
30.10.2020 18:00:00 4,4 3,1 - - 2 1 - - W 1015,8 26 0 0,0
30.10.2020 17:00:00 6,4 3,4 - - 5 3 - - S 1014,6 35 0 0,0
30.10.2020 16:00:00 8,3 3,6 - - 13 7 - - SW 1013,7 35 54 0,0
30.10.2020 15:00:00 9,6 3,6 - - 15 8 - - WSW 1012,7 35 18 0,0
30.10.2020 14:00:00 10,7 4,2 - - 13 7 - - WSW 1011,7 25 36 0,0
30.10.2020 13:00:00 9,9 4,5 - - 11 6 - - W 1011,0 30 12 0,0
30.10.2020 12:00:00 11,0 5,3 - - 15 8 - - WSW 1010,1 21 36 0,0
30.10.2020 11:00:00 10,0 4,8 - - 15 8 - - WSW 1009,2 27 6 0,0
30.10.2020 10:00:00 9,3 6,6 - - 15 8 - - WSW 1008,6 50 0 0,0
30.10.2020 09:00:00 9,3 7,1 10,0 10,7 15 8 - - W 1007,4 50 0 0,0
30.10.2020 08:00:00 9,6 7,5 - - 16 9 - - W 1006,1 50 0 0,0
30.10.2020 07:00:00 10,0 7,8 - - 18 10 - - SW 1004,8 50 0 0,0
30.10.2020 06:00:00 10,5 8,0 - - 21 11 - - WSW 1003,3 50 0 0,0
30.10.2020 05:00:00 11,4 8,7 - - 24 13 61 33 SW 1001,8 50 0 0,0
30.10.2020 04:00:00 12,1 9,7 - - 41 22 67 36 SW 999,6 45 0 0,0
30.10.2020 03:00:00 12,6 11,1 - - 48 26 76 41 SW 998,8 17 0 0,0
30.10.2020 02:00:00 13,1 11,6 - - 44 24 76 41 SW 998,7 14 0 0,0
30.10.2020 01:00:00 12,9 12,0 - - 44 24 67 36 SW 998,4 13 0 0,0
30.10.2020 00:00:00 12,7 12,1 - - 44 24 70 38 SW 998,2 10 - 0,0
29.10.2020 23:00:00 12,7 12,3 - - 48 26 74 40 SW 997,9 9 0 0,2
29.10.2020 22:00:00 12,3 12,0 - - 41 22 65 35 SSW 997,9 2,6 0 0,6
29.10.2020 21:00:00 12,0 11,7 - - 39 21 57 31 SSW 998,4 4,8 0 0,8
29.10.2020 20:00:00 12,0 11,7 - - 34 18 52 28 SSW 998,3 6 0 1,0
29.10.2020 19:00:00 12,1 11,7 - - 26 14 55 30 SSW 998,4 9 0 1,8
29.10.2020 18:00:00 12,3 11,9 - - 22 12 - - SSW 998,5 3,3 0 1,8
29.10.2020 17:00:00 12,1 11,8 - - 28 15 48 26 SSW 998,3 2,9 0 3,2
29.10.2020 16:00:00 12,2 11,9 - - 28 15 52 28 SSW 998,2 11 0 1,8
29.10.2020 15:00:00 11,5 11,4 - - 21 11 - - S 998,2 3,8 0 2,2
29.10.2020 14:00:00 9,0 8,9 - - 4 2 - - SE 999,0 3,3 0 2,4
29.10.2020 13:00:00 8,3 8,1 - - 8 4 - - SSE 999,9 3,0 0 1,8
29.10.2020 12:00:00 7,8 7,5 - - 13 7 - - SSE 1001,0 3,5 0 1,6
29.10.2020 11:00:00 7,1 6,8 - - 16 9 - - SSE 1001,7 3,6 0 1,4
29.10.2020 10:00:00 7,3 6,9 - - 11 6 - - SSE 1002,6 7 0 0,6
29.10.2020 09:00:00 5,5 5,1 10,0 10,9 5 3 - - SE 1003,8 7 0 0,0
29.10.2020 08:00:00 4,9 4,3 - - 4 2 - - SW 1004,0 9 0 0,0
29.10.2020 07:00:00 5,0 4,3 - - 8 4 - - SE 1004,0 9 0 0,0
29.10.2020 06:00:00 5,1 4,3 - - 8 4 - - SSE 1004,1 10 0 0,0
29.10.2020 05:00:00 5,3 4,3 - - 11 6 - - S 1003,8 11 0 0,0
29.10.2020 04:00:00 5,7 4,5 - - 16 9 - - S 1002,8 12 0 0,0
29.10.2020 03:00:00 5,8 4,7 - - 15 8 - - SSW 1001,8 15 0 0,0
29.10.2020 02:00:00 6,0 4,8 - - 11 6 - - S 1001,0 16 0 0,0
29.10.2020 01:00:00 6,4 5,0 - - 15 8 - - SSW 1000,2 16 0 0,0
29.10.2020 00:00:00 6,4 5,1 - - 13 7 - - SSW 999,4 16 - 0,0
28.10.2020 23:00:00 6,3 5,1 - - 16 9 - - SSW 998,1 22 0 0,0
28.10.2020 22:00:00 5,9 4,8 - - 18 10 - - SSW 997,1 10 0 0,2
28.10.2020 21:00:00 4,8 3,8 - - 9 5 - - S 996,6 11 0 0,0
28.10.2020 20:00:00 5,1 3,5 - - 13 7 - - SSW 996,2 21 0 0,0
28.10.2020 19:00:00 5,4 4,0 - - 21 11 - - SW 995,5 18 0 0,0
28.10.2020 18:00:00 5,7 3,9 - - 16 9 - - SW 994,7 18 0 0,0
28.10.2020 17:00:00 6,4 4,9 - - 18 10 - - SSW 993,6 18 0 0,4
28.10.2020 16:00:00 5,5 3,1 - - 22 12 - - WSW 993,0 23 0 2,8
28.10.2020 15:00:00 7,8 4,7 - - 24 13 - - SSW 992,2 19 6 0,0
28.10.2020 14:00:00 7,6 5,6 - - 22 12 - - SSW 992,0 11 0 0,6
28.10.2020 13:00:00 7,5 5,9 - - 24 13 - - SSW 991,9 11 0 0,2
28.10.2020 12:00:00 7,2 5,2 - - 29 16 46 25 SSW 991,8 24 0 0,2
28.10.2020 11:00:00 7,9 5,3 - - 29 16 52 28 SSW 991,6 29 0 0,0
28.10.2020 10:00:00 7,6 5,6 - - 26 14 50 27 SSW 991,1 17 0 0,0
28.10.2020 09:00:00 6,9 5,3 10,2 11,0 26 14 52 28 SW 990,5 18 0 0,0
28.10.2020 08:00:00 6,7 5,2 - - 21 11 - - SSW 990,4 17 0 0,0
28.10.2020 07:00:00 6,7 5,3 - - 18 10 - - SSW 989,8 15 0 0,0
28.10.2020 06:00:00 6,8 5,3 - - 26 14 - - SSW 989,6 14 0 0,0
28.10.2020 05:00:00 6,8 5,4 - - 22 12 - - SSW 989,5 13 0 0,0
28.10.2020 04:00:00 6,8 5,5 - - 9 5 - - SSW 989,2 13 0 0,0
28.10.2020 03:00:00 6,6 5,3 - - 15 8 - - SSW 989,4 14 0 0,0
28.10.2020 02:00:00 6,6 5,2 - - 26 14 - - SSW 989,1 15 0 0,0
28.10.2020 01:00:00 6,5 5,1 - - 28 15 - - SSW 989,0 16 0 0,0
28.10.2020 00:00:00 6,1 5,2 - - 22 12 - - SSW 988,7 13 - 0,2
27.10.2020 23:00:00 5,1 4,3 - - 15 8 - - SSW 988,8 13 0 0,0
27.10.2020 22:00:00 4,6 4,0 - - 18 10 - - SSW 989,1 15 0 0,0
27.10.2020 21:00:00 5,0 3,9 - - 18 10 - - SW 988,3 15 0 0,0
27.10.2020 20:00:00 5,2 4,2 - - 13 7 - - SW 987,9 15 0 0,2
27.10.2020 19:00:00 5,9 5,0 - - 13 7 - - SSW 987,6 24 0 0,4
27.10.2020 18:00:00 6,6 5,0 - - 22 12 - - WSW 986,6 29 0 1,0
27.10.2020 17:00:00 6,7 5,5 - - 22 12 - - W 985,9 28 0 2,6
27.10.2020 16:00:00 8,2 8,0 - - 8 4 - - S 984,2 6 0 3,2
27.10.2020 15:00:00 8,0 7,7 - - 11 6 - - SSE 984,8 2,9 0 2,8
27.10.2020 14:00:00 7,8 7,4 - - 13 7 - - SE 985,8 7 0 1,6
27.10.2020 13:00:00 7,5 7,0 - - 15 8 - - SE 987,1 4,6 0 0,6
27.10.2020 12:00:00 7,1 6,5 - - 13 7 - - SE 988,5 8 0 0,0
27.10.2020 11:00:00 6,8 6,2 - - 13 7 - - SSE 990,0 12 0 0,2
27.10.2020 10:00:00 6,4 6,1 - - 5 3 - - SE 990,9 4,2 0 0,0
27.10.2020 09:00:00 5,7 5,3 10,2 11,0 8 4 - - SSE 991,4 20 0 0,0
27.10.2020 08:00:00 5,4 5,2 - - 5 3 - - SE 992,2 7 0 0,0
27.10.2020 07:00:00 5,5 5,1 - - 5 3 - - SSW 992,5 11 0 0,0
27.10.2020 06:00:00 5,3 4,7 - - 9 5 - - WSW 992,9 20 0 0,0
27.10.2020 05:00:00 5,5 4,8 - - 13 7 - - SSW 993,5 19 0 0,0
27.10.2020 04:00:00 6,3 5,7 - - 9 5 - - S 993,7 18 0 0,0
27.10.2020 03:00:00 6,0 5,6 - - 11 6 - - S 993,9 19 0 0,0
27.10.2020 02:00:00 6,0 5,0 - - 8 4 - - S 994,3 17 0 0,0
27.10.2020 01:00:00 6,7 5,3 - - 13 7 - - SSW 994,2 17 0 0,0
27.10.2020 00:00:00 7,6 5,4 - - 16 9 - - WSW 993,9 22 - 0,0
26.10.2020 23:00:00 7,7 5,6 - - 11 6 - - SW 994,0 17 0 0,0
26.10.2020 22:00:00 8,2 5,6 - - 13 7 - - WSW 993,8 20 0 0,0
26.10.2020 21:00:00 8,2 5,8 - - 16 9 - - W 993,3 23 0 0,0
26.10.2020 20:00:00 8,1 6,1 - - 16 9 - - W 992,9 19 0 0,0
26.10.2020 19:00:00 8,3 6,0 - - 28 15 - - W 992,2 35 0 0,0
26.10.2020 18:00:00 8,2 6,3 - - 21 11 - - W 991,4 18 0 0,0
26.10.2020 17:00:00 8,4 6,6 - - 18 10 57 31 W 990,6 30 0 0,0
26.10.2020 16:00:00 8,5 6,8 - - 16 9 - - W 989,9 11 0 0,0
26.10.2020 15:00:00 8,5 6,8 - - 18 10 - - W 989,3 12 0 0,2
26.10.2020 14:00:00 8,3 6,7 - - 22 12 46 25 W 988,8 29 0 0,2
26.10.2020 13:00:00 8,4 6,7 - - 21 11 - - W 988,3 45 0 0,2
26.10.2020 12:00:00 8,7 6,7 - - 22 12 - - WSW 987,9 15 6 0,0
26.10.2020 11:00:00 8,4 7,0 - - 18 10 - - WSW 987,5 9 0 0,6
26.10.2020 10:00:00 7,9 6,9 - - 15 8 - - SW 987,0 14 0 0,2
26.10.2020 09:00:00 7,6 6,7 10,2 11,2 15 8 - - SW 986,5 30 0 1,0
26.10.2020 08:00:00 7,3 7,0 - - 15 8 - - SSW 986,1 4,0 0 0,0
26.10.2020 07:00:00 7,0 6,6 - - 8 4 - - S 985,7 40 0 0,2
26.10.2020 06:00:00 7,4 6,9 - - 11 6 - - SSW 985,0 16 0 0,8
26.10.2020 05:00:00 7,4 7,0 - - 13 7 - - S 984,9 3,5 0 1,2
26.10.2020 04:00:00 7,4 6,8 - - 26 14 - - S 984,8 12 0 2,2
26.10.2020 03:00:00 7,3 6,4 - - 24 13 - - S 985,1 14 0 0,8
26.10.2020 02:00:00 7,4 6,7 - - 16 9 - - S 985,7 13 0 0,0
26.10.2020 01:00:00 7,4 6,6 - - 18 10 - - S 986,1 14 0 0,0
26.10.2020 00:00:00 7,2 6,4 - - 16 9 - - S 986,3 14 - 0,0
25.10.2020 23:00:00 7,2 6,6 - - 15 8 - - SSE 986,7 16 0 0,2
25.10.2020 22:00:00 7,0 6,1 - - 16 9 - - S 986,9 10 0 0,2
25.10.2020 21:00:00 6,7 6,2 - - 13 7 - - SSE 987,2 13 0 2,8
25.10.2020 20:00:00 7,0 5,9 - - 15 8 - - S 987,2 6 0 0,4
25.10.2020 19:00:00 7,4 6,1 - - 15 8 - - S 987,0 17 0 0,4
25.10.2020 18:00:00 7,0 5,5 - - 18 10 - - S 987,5 18 0 0,2
25.10.2020 17:00:00 7,4 5,8 - - 18 10 - - S 987,3 17 0 0,0
25.10.2020 16:00:00 8,0 6,0 - - 24 13 52 28 S 986,8 25 0 0,0
25.10.2020 15:00:00 8,4 6,3 - - 26 14 48 26 S 986,5 20 0 0,2
25.10.2020 14:00:00 8,7 6,2 - - 29 16 50 27 S 986,4 19 6 0,0
25.10.2020 13:00:00 8,4 5,7 - - 29 16 57 31 S 986,6 40 12 0,0
25.10.2020 12:00:00 8,6 5,8 - - 28 15 57 31 SSW 986,4 40 18 0,0
25.10.2020 11:00:00 8,5 6,2 - - 22 12 - - SSW 986,2 26 18 0,0
25.10.2020 10:00:00 7,5 6,4 - - 22 12 - - SSW 985,8 21 12 0,2
25.10.2020 09:00:00 6,4 5,5 10,5 11,2 18 10 - - S 985,5 9 0 0,8
25.10.2020 08:00:00 6,4 5,7 - - 13 7 54 29 S 985,4 23 0 0,4
25.10.2020 07:00:00 6,0 5,5 - - 13 7 - - S 984,8 20 0 3,4
25.10.2020 06:00:00 6,0 5,4 - - 26 14 - - SSE 985,2 1,5 0 1,2
25.10.2020 05:00:00 6,0 5,5 - - 15 8 - - S 985,1 11 0 0,2
25.10.2020 04:00:00 4,6 4,2 - - 11 6 - - SE 985,2 14 0 0,0

tt = temperature
td = dewpoint
tt -20cm = temperature -20cm
tt -100cm = temperature -100cm
ff = wind speed
fx = gusts
dd = wind direction
ppp = reduced air pressure
vv = visibility
sd = sunshine duration
rr = precipitation

Next stations